MSC Nuria — 3ESE2 — position and weather

sailwx.info

Track history (hours):
 
Tides and Currents Weather Stations Pressure Air Temp Water Temp Dewpoint Dewpoint Depression Visibility Wind Speed Wind Dir Waves Ship Positions

MSC Nuria

Last reported at 2014-Aug-30 20:28 UTC. Time now 2014-Aug-30 20:37 UTC.
Position N 51°19' E 004°19'.

Length 275 m; draft 10 m.

Type: Ship (hazmat cat A). MMSI: 370272977.

Date/timePositionNaut miles runAvg speedWind from/ knotsBaromVisibWave heightAir tempDewpointWater temp
2014-Aug-30 20:28N 51°19' E 004°19'0 0.0
2014-Aug-30 19:30N 51°19' E 004°19'0 0.0
2014-Aug-30 18:27N 51°19' E 004°19'0 0.0
2014-Aug-30 17:33N 51°19' E 004°19'0 0.0
2014-Aug-30 16:26N 51°19' E 004°19'0 0.0
2014-Aug-30 15:23N 51°19' E 004°19'0 0.0
2014-Aug-30 14:31N 51°19' E 004°19'0 0.0
2014-Aug-30 13:28N 51°19' E 004°19'0 0.0
2014-Aug-30 12:33N 51°19' E 004°19'0 0.0
2014-Aug-30 11:33N 51°19' E 004°19'0 0.0
2014-Aug-30 10:30N 51°19' E 004°19'0 0.0
2014-Aug-30 09:32N 51°19' E 004°19'0 0.0
2014-Aug-30 08:29N 51°19' E 004°19'0 0.0
2014-Aug-30 07:31N 51°19' E 004°19'0 0.0
2014-Aug-30 06:31N 51°19' E 004°19'0 0.0
2014-Aug-30 05:33N 51°19' E 004°19'0 0.3
2014-Aug-30 04:33N 51°19' E 004°19'2 1.7
2014-Aug-30 03:34N 51°21' E 004°17'1 0.7
2014-Aug-30 02:34N 51°21' E 004°16'10 9.7
2014-Aug-30 01:33N 51°25' E 004°02'1212.0
2014-Aug-30 00:33N 51°23' E 003°43'1111.3
2014-Aug-29 23:33N 51°25' E 003°25'1716.6
2014-Aug-29 22:33N 51°23' E 002°58'1212.1
2014-Aug-29 21:33N 51°22' E 002°39'5 4.7
2014-Aug-29 20:33N 51°22' E 002°31'1110.8
2014-Aug-29 19:33N 51°17' E 002°16'1514.7
2014-Aug-29 18:34N 51°10' E 001°56'1515.2
2014-Aug-29 17:33N 51°00' E 001°37'1715.5
2014-Aug-29 16:29N 50°45' E 001°25'1516.3
2014-Aug-29 15:33N 50°34' E 001°08'1817.3
2014-Aug-29 14:31N 50°26' E 000°43'2019.4
2014-Aug-29 13:30N 50°19' E 000°14'3719.0
2014-Aug-29 11:33N 49°45' W 000°07'1515.2
2014-Aug-29 10:33N 49°30' E 000°00'6 5.7
2014-Aug-29 09:31N 49°28' E 000°08'0 0.0
2014-Aug-29 08:31N 49°28' E 000°08'0 0.0
2014-Aug-29 07:33N 49°28' E 000°08'0 0.0
2014-Aug-29 06:33N 49°28' E 000°08'0 0.0
2014-Aug-29 05:33N 49°28' E 000°08'0 0.0
2014-Aug-29 04:17N 49°28' E 000°08'0 0.0
2014-Aug-29 03:23N 49°28' E 000°08'0 0.0
2014-Aug-29 02:31N 49°28' E 000°08'0 0.0
2014-Aug-29 01:28N 49°28' E 000°08'0 0.0
2014-Aug-29 00:27N 49°28' E 000°08'0 0.0
2014-Aug-28 23:33N 49°28' E 000°08'0 0.0
2014-Aug-28 22:33N 49°28' E 000°08'0 0.0
2014-Aug-28 21:32N 49°28' E 000°08'0 0.0
2014-Aug-28 20:32N 49°28' E 000°08'0 0.0
2014-Aug-28 19:19N 49°28' E 000°08'1 0.8
2014-Aug-28 18:33N 49°27' E 000°09'10 9.6
2014-Aug-28 17:33N 49°31' W 000°05'6 6.1
2014-Aug-28 16:33N 49°34' W 000°13'6 6.4
2014-Aug-28 15:33N 49°41' W 000°13'5416.0
2014-Aug-28 12:11N 50°31' E 000°17'1117.1
2014-Aug-28 11:33N 50°34' E 000°33'1515.3
2014-Aug-28 10:33N 50°43' E 000°53'1715.8
2014-Aug-28 09:30N 50°52' E 001°14'1718.3
2014-Aug-28 08:34N 51°05' E 001°34'1818.2
2014-Aug-28 07:34N 51°19' E 001°52'1616.1
2014-Aug-28 06:34N 51°33' E 002°05'1615.3
2014-Aug-28 05:32N 51°44' E 002°22'1414.6
2014-Aug-28 04:33N 51°55' E 002°37'1914.2
2014-Aug-28 03:14N 52°14' E 002°40'1014.5
2014-Aug-28 02:31N 52°23' E 002°48'1815.5
2014-Aug-28 01:23N 52°39' E 003°01'1416.5
2014-Aug-28 00:33N 52°51' E 003°12'1717.0
2014-Aug-27 23:33N 53°07' E 003°21'25016.7
2014-Aug-27 08:34N 56°34' E 007°24'1817.8
2014-Aug-27 07:33N 56°50' E 007°39'1919.0
2014-Aug-27 06:33N 57°07' E 007°55'1918.9
2014-Aug-27 05:33N 57°21' E 008°19'1919.0
2014-Aug-27 04:33N 57°31' E 008°47'2018.6
2014-Aug-27 03:29N 57°43' E 009°18'1718.8
2014-Aug-27 02:33N 57°49' E 009°48'1818.3
2014-Aug-27 01:33N 57°50' E 010°22'1818.4
2014-Aug-27 00:33N 57°44' E 010°55'1918.7
2014-Aug-26 23:33N 57°31' E 011°20'1817.8
2014-Aug-26 22:33N 57°15' E 011°34'1818.4
2014-Aug-26 21:33N 56°57' E 011°46'1716.9
2014-Aug-26 20:33N 56°41' E 011°49'12914.3
2014-Aug-26 11:33N 54°32' E 011°23'1918.2
2014-Aug-26 10:31N 54°26' E 011°53'1515.2
2014-Aug-26 09:33N 54°33' E 012°14'1818.2
2014-Aug-26 08:33N 54°45' E 012°38'2020.1
2014-Aug-26 07:33N 54°53' E 013°10'1919.5
2014-Aug-26 06:33N 54°47' E 013°43'2020.1
2014-Aug-26 05:33N 54°39' E 014°15'3919.3
2014-Aug-26 03:32N 54°50' E 015°20'2219.7
2014-Aug-26 02:24N 54°58' E 015°56'6119.9
2014-Aug-25 23:20N 55°17' E 017°38'3819.7
2014-Aug-25 21:22N 55°26' E 018°44'39 1.1
2014-Aug-24 11:10N 55°02' E 019°38'1320.7
2014-Aug-24 10:33N 54°54' E 019°22'2120.7
2014-Aug-24 09:33N 54°39' E 018°57'1413.6
2014-Aug-24 08:33N 54°32' E 018°37'4 3.5
2014-Aug-24 07:33N 54°33' E 018°31'0 0.0
2014-Aug-24 06:34N 54°33' E 018°31'0 0.0
2014-Aug-24 05:34N 54°33' E 018°31'0 0.0
2014-Aug-24 04:33N 54°33' E 018°31'0 0.0
2014-Aug-24 03:34N 54°33' E 018°31'0 0.0
2014-Aug-24 02:34N 54°33' E 018°31'0 0.0
2014-Aug-24 01:34N 54°33' E 018°31'0 0.0
2014-Aug-24 00:33N 54°33' E 018°31'0 0.0
2014-Aug-23 23:34N 54°33' E 018°31'0 0.0
2014-Aug-23 22:34N 54°33' E 018°31'0 0.0
2014-Aug-23 21:33N 54°33' E 018°31'0 0.0
2014-Aug-23 20:34N 54°33' E 018°31'0 0.0
2014-Aug-23 19:33N 54°33' E 018°31'0 0.0
2014-Aug-23 03:34N 54°33' E 018°31'0 0.0
2014-Aug-23 02:34N 54°33' E 018°31'0 0.0
2014-Aug-23 01:34N 54°33' E 018°31'0 0.0
2014-Aug-23 00:33N 54°33' E 018°31'0 0.0
2014-Aug-22 23:34N 54°33' E 018°31'0 0.0
2014-Aug-22 22:34N 54°33' E 018°31'0 0.0
2014-Aug-22 21:34N 54°33' E 018°31'0 0.0
2014-Aug-22 20:34N 54°33' E 018°31'0 0.0
2014-Aug-22 19:34N 54°33' E 018°31'0 0.0
2014-Aug-22 18:34N 54°33' E 018°31'0 0.0
2014-Aug-22 17:34N 54°33' E 018°31'0 0.0
2014-Aug-22 16:33N 54°33' E 018°31'0 0.0
2014-Aug-22 15:33N 54°33' E 018°31'0 0.0
2014-Aug-22 14:34N 54°33' E 018°31'0 0.0
2014-Aug-22 13:33N 54°33' E 018°31'0 0.0
2014-Aug-22 12:33N 54°33' E 018°31'0 0.0
2014-Aug-22 11:33N 54°33' E 018°31'0 0.0
2014-Aug-22 10:33N 54°33' E 018°31'0 0.0
2014-Aug-22 09:33N 54°33' E 018°31'0 0.0
2014-Aug-22 08:33N 54°33' E 018°31'0 0.0
2014-Aug-22 07:33N 54°33' E 018°31'0 0.0
2014-Aug-22 06:34N 54°33' E 018°31'0 0.0
2014-Aug-22 05:34N 54°33' E 018°31'1 0.6
2014-Aug-22 04:34N 54°32' E 018°32'9 9.3
2014-Aug-22 03:33N 54°33' E 018°48'1515.1
2014-Aug-22 02:33N 54°47' E 018°56'1918.8
2014-Aug-22 01:33N 54°59' E 018°32'1918.6
2014-Aug-22 00:34N 55°00' E 017°59'1918.5
2014-Aug-21 23:33N 54°55' E 017°28'11318.4
2014-Aug-21 17:26N 54°37' E 014°15'1718.7
2014-Aug-21 16:33N 54°43' E 013°48'1818.4
2014-Aug-21 15:33N 54°50' E 013°18'1818.2
2014-Aug-21 14:34N 54°46' E 012°47'1918.6
2014-Aug-21 13:33N 54°37' E 012°19'1413.6
2014-Aug-21 12:33N 54°25' E 012°09'11413.9
2014-Aug-21 04:21N 56°13' E 011°05'5212.3
2014-Aug-21 00:07N 57°01' E 011°42'814.7
2014-Aug-20 23:33N 57°09' E 011°37'1414.3
2014-Aug-20 22:33N 57°23' E 011°28'1413.7
2014-Aug-20 21:33N 57°33' E 011°12'1313.6
2014-Aug-20 20:34N 57°43' E 010°54'  
Track history (hours):
 
Tides and Currents Weather Stations Pressure Air Temp Water Temp Dewpoint Dewpoint Depression Visibility Wind Speed Wind Dir Waves Ship Positions

MSC Nuria

Last reported at 2014-Aug-30 20:28 UTC. Time now 2014-Aug-30 20:37 UTC.
Position N 51°19' E 004°19'.

Length 275 m; draft 10 m.

Type: Ship (hazmat cat A). MMSI: 370272977.

Date/timePositionNaut miles runAvg speedWind from/ knotsBaromVisibWave heightAir tempDewpointWater temp
2014-Aug-30 20:28N 51°19' E 004°19'0 0.0
2014-Aug-30 19:30N 51°19' E 004°19'0 0.0
2014-Aug-30 18:27N 51°19' E 004°19'0 0.0
2014-Aug-30 17:33N 51°19' E 004°19'0 0.0
2014-Aug-30 16:26N 51°19' E 004°19'0 0.0
2014-Aug-30 15:23N 51°19' E 004°19'0 0.0
2014-Aug-30 14:31N 51°19' E 004°19'0 0.0
2014-Aug-30 13:28N 51°19' E 004°19'0 0.0
2014-Aug-30 12:33N 51°19' E 004°19'0 0.0
2014-Aug-30 11:33N 51°19' E 004°19'0 0.0
2014-Aug-30 10:30N 51°19' E 004°19'0 0.0
2014-Aug-30 09:32N 51°19' E 004°19'0 0.0
2014-Aug-30 08:29N 51°19' E 004°19'0 0.0
2014-Aug-30 07:31N 51°19' E 004°19'0 0.0
2014-Aug-30 06:31N 51°19' E 004°19'0 0.0
2014-Aug-30 05:33N 51°19' E 004°19'0 0.3
2014-Aug-30 04:33N 51°19' E 004°19'2 1.7
2014-Aug-30 03:34N 51°21' E 004°17'1 0.7
2014-Aug-30 02:34N 51°21' E 004°16'10 9.7
2014-Aug-30 01:33N 51°25' E 004°02'1212.0
2014-Aug-30 00:33N 51°23' E 003°43'1111.3
2014-Aug-29 23:33N 51°25' E 003°25'1716.6
2014-Aug-29 22:33N 51°23' E 002°58'1212.1
2014-Aug-29 21:33N 51°22' E 002°39'5 4.7
2014-Aug-29 20:33N 51°22' E 002°31'1110.8
2014-Aug-29 19:33N 51°17' E 002°16'1514.7
2014-Aug-29 18:34N 51°10' E 001°56'1515.2
2014-Aug-29 17:33N 51°00' E 001°37'1715.5
2014-Aug-29 16:29N 50°45' E 001°25'1516.3
2014-Aug-29 15:33N 50°34' E 001°08'1817.3
2014-Aug-29 14:31N 50°26' E 000°43'2019.4
2014-Aug-29 13:30N 50°19' E 000°14'3719.0
2014-Aug-29 11:33N 49°45' W 000°07'1515.2
2014-Aug-29 10:33N 49°30' E 000°00'6 5.7
2014-Aug-29 09:31N 49°28' E 000°08'0 0.0
2014-Aug-29 08:31N 49°28' E 000°08'0 0.0
2014-Aug-29 07:33N 49°28' E 000°08'0 0.0
2014-Aug-29 06:33N 49°28' E 000°08'0 0.0
2014-Aug-29 05:33N 49°28' E 000°08'0 0.0
2014-Aug-29 04:17N 49°28' E 000°08'0 0.0
2014-Aug-29 03:23N 49°28' E 000°08'0 0.0
2014-Aug-29 02:31N 49°28' E 000°08'0 0.0
2014-Aug-29 01:28N 49°28' E 000°08'0 0.0
2014-Aug-29 00:27N 49°28' E 000°08'0 0.0
2014-Aug-28 23:33N 49°28' E 000°08'0 0.0
2014-Aug-28 22:33N 49°28' E 000°08'0 0.0
2014-Aug-28 21:32N 49°28' E 000°08'0 0.0
2014-Aug-28 20:32N 49°28' E 000°08'0 0.0
2014-Aug-28 19:19N 49°28' E 000°08'1 0.8
2014-Aug-28 18:33N 49°27' E 000°09'10 9.6
2014-Aug-28 17:33N 49°31' W 000°05'6 6.1
2014-Aug-28 16:33N 49°34' W 000°13'6 6.4
2014-Aug-28 15:33N 49°41' W 000°13'5416.0
2014-Aug-28 12:11N 50°31' E 000°17'1117.1
2014-Aug-28 11:33N 50°34' E 000°33'1515.3
2014-Aug-28 10:33N 50°43' E 000°53'1715.8
2014-Aug-28 09:30N 50°52' E 001°14'1718.3
2014-Aug-28 08:34N 51°05' E 001°34'1818.2
2014-Aug-28 07:34N 51°19' E 001°52'1616.1
2014-Aug-28 06:34N 51°33' E 002°05'1615.3
2014-Aug-28 05:32N 51°44' E 002°22'1414.6
2014-Aug-28 04:33N 51°55' E 002°37'1914.2
2014-Aug-28 03:14N 52°14' E 002°40'1014.5
2014-Aug-28 02:31N 52°23' E 002°48'1815.5
2014-Aug-28 01:23N 52°39' E 003°01'1416.5
2014-Aug-28 00:33N 52°51' E 003°12'1717.0
2014-Aug-27 23:33N 53°07' E 003°21'25016.7
2014-Aug-27 08:34N 56°34' E 007°24'1817.8
2014-Aug-27 07:33N 56°50' E 007°39'1919.0
2014-Aug-27 06:33N 57°07' E 007°55'1918.9
2014-Aug-27 05:33N 57°21' E 008°19'1919.0
2014-Aug-27 04:33N 57°31' E 008°47'2018.6
2014-Aug-27 03:29N 57°43' E 009°18'1718.8
2014-Aug-27 02:33N 57°49' E 009°48'1818.3
2014-Aug-27 01:33N 57°50' E 010°22'1818.4
2014-Aug-27 00:33N 57°44' E 010°55'1918.7
2014-Aug-26 23:33N 57°31' E 011°20'1817.8
2014-Aug-26 22:33N 57°15' E 011°34'1818.4
2014-Aug-26 21:33N 56°57' E 011°46'1716.9
2014-Aug-26 20:33N 56°41' E 011°49'12914.3
2014-Aug-26 11:33N 54°32' E 011°23'1918.2
2014-Aug-26 10:31N 54°26' E 011°53'1515.2
2014-Aug-26 09:33N 54°33' E 012°14'1818.2
2014-Aug-26 08:33N 54°45' E 012°38'2020.1
2014-Aug-26 07:33N 54°53' E 013°10'1919.5
2014-Aug-26 06:33N 54°47' E 013°43'2020.1
2014-Aug-26 05:33N 54°39' E 014°15'3919.3
2014-Aug-26 03:32N 54°50' E 015°20'2219.7
2014-Aug-26 02:24N 54°58' E 015°56'6119.9
2014-Aug-25 23:20N 55°17' E 017°38'3819.7
2014-Aug-25 21:22N 55°26' E 018°44'39 1.1
2014-Aug-24 11:10N 55°02' E 019°38'1320.7
2014-Aug-24 10:33N 54°54' E 019°22'2120.7
2014-Aug-24 09:33N 54°39' E 018°57'1413.6
2014-Aug-24 08:33N 54°32' E 018°37'4 3.5
2014-Aug-24 07:33N 54°33' E 018°31'0 0.0
2014-Aug-24 06:34N 54°33' E 018°31'0 0.0
2014-Aug-24 05:34N 54°33' E 018°31'0 0.0
2014-Aug-24 04:33N 54°33' E 018°31'0 0.0
2014-Aug-24 03:34N 54°33' E 018°31'0 0.0
2014-Aug-24 02:34N 54°33' E 018°31'0 0.0
2014-Aug-24 01:34N 54°33' E 018°31'0 0.0
2014-Aug-24 00:33N 54°33' E 018°31'0 0.0
2014-Aug-23 23:34N 54°33' E 018°31'0 0.0
2014-Aug-23 22:34N 54°33' E 018°31'0 0.0
2014-Aug-23 21:33N 54°33' E 018°31'0 0.0
2014-Aug-23 20:34N 54°33' E 018°31'0 0.0
2014-Aug-23 19:33N 54°33' E 018°31'0 0.0
2014-Aug-23 03:34N 54°33' E 018°31'0 0.0
2014-Aug-23 02:34N 54°33' E 018°31'0 0.0
2014-Aug-23 01:34N 54°33' E 018°31'0 0.0
2014-Aug-23 00:33N 54°33' E 018°31'0 0.0
2014-Aug-22 23:34N 54°33' E 018°31'0 0.0
2014-Aug-22 22:34N 54°33' E 018°31'0 0.0
2014-Aug-22 21:34N 54°33' E 018°31'0 0.0
2014-Aug-22 20:34N 54°33' E 018°31'0 0.0
2014-Aug-22 19:34N 54°33' E 018°31'0 0.0
2014-Aug-22 18:34N 54°33' E 018°31'0 0.0
2014-Aug-22 17:34N 54°33' E 018°31'0 0.0
2014-Aug-22 16:33N 54°33' E 018°31'0 0.0
2014-Aug-22 15:33N 54°33' E 018°31'0 0.0
2014-Aug-22 14:34N 54°33' E 018°31'0 0.0
2014-Aug-22 13:33N 54°33' E 018°31'0 0.0
2014-Aug-22 12:33N 54°33' E 018°31'0 0.0
2014-Aug-22 11:33N 54°33' E 018°31'0 0.0
2014-Aug-22 10:33N 54°33' E 018°31'0 0.0
2014-Aug-22 09:33N 54°33' E 018°31'0 0.0
2014-Aug-22 08:33N 54°33' E 018°31'0 0.0
2014-Aug-22 07:33N 54°33' E 018°31'0 0.0
2014-Aug-22 06:34N 54°33' E 018°31'0 0.0
2014-Aug-22 05:34N 54°33' E 018°31'1 0.6
2014-Aug-22 04:34N 54°32' E 018°32'9 9.3
2014-Aug-22 03:33N 54°33' E 018°48'1515.1
2014-Aug-22 02:33N 54°47' E 018°56'1918.8
2014-Aug-22 01:33N 54°59' E 018°32'1918.6
2014-Aug-22 00:34N 55°00' E 017°59'1918.5
2014-Aug-21 23:33N 54°55' E 017°28'11318.4
2014-Aug-21 17:26N 54°37' E 014°15'1718.7
2014-Aug-21 16:33N 54°43' E 013°48'1818.4
2014-Aug-21 15:33N 54°50' E 013°18'1818.2
2014-Aug-21 14:34N 54°46' E 012°47'1918.6
2014-Aug-21 13:33N 54°37' E 012°19'1413.6
2014-Aug-21 12:33N 54°25' E 012°09'11413.9
2014-Aug-21 04:21N 56°13' E 011°05'5212.3
2014-Aug-21 00:07N 57°01' E 011°42'814.7
2014-Aug-20 23:33N 57°09' E 011°37'1414.3
2014-Aug-20 22:33N 57°23' E 011°28'1413.7
2014-Aug-20 21:33N 57°33' E 011°12'1313.6
2014-Aug-20 20:34N 57°43' E 010°54'  

Dump ship's entire track history